Observations
| Time | Sensor | AQI | SAQ | Temp °C | Hum % | Pres Pa | CO μg/m³ | H₂S μg/m³ | NO μg/m³ | NO₂ μg/m³ | O₃ μg/m³ | SO₂ μg/m³ | CO₂e PPM | VOC PPM | PM1 μg/m³ | PM2.5 μg/m³ | PM4 μg/m³ | PM10 μg/m³ | TPS µm |
|---|---|---|---|---|---|---|---|---|---|---|---|---|---|---|---|---|---|---|---|
| Thursday 13 August 2026 | |||||||||||||||||||
| 07:25 | Trim Market St | 2 | 22 | 72 | 49,515 | 0.02 | 0 | 1.58 | 5.71 | 38.99 | 0 | 2.85 | 5.39 | 8.15 | |||||
| 07:24 | Trim Patrick St | 2 | 21.6 | 74 | 38,460 | 0 | 0 | 1.54 | 6.83 | 32.63 | 4.79 | 5.43 | 9.89 | 10.88 | |||||
| 07:24 | Trim Market St | 2 | 21.9 | 72 | 49,265 | 0.02 | 0 | 1.56 | 3.04 | 34.94 | 0 | 2.85 | 3.93 | 7.53 | |||||
| 07:23 | Trim Patrick St | 2 | 21.6 | 74 | 38,460 | 0 | 0.84 | 1.73 | 12.53 | 23.43 | 4.09 | 6.29 | 9.87 | 10.86 | |||||
| 07:23 | Trim Market St | 2 | 21.9 | 72 | 48,909 | 0.02 | 0 | 1.43 | 6.97 | 51.95 | 0 | 2.14 | 3.45 | 7.53 | |||||
| 07:22 | Trim Patrick St | 2 | 21.5 | 74 | 38,460 | 0 | 0 | 1.58 | 14.05 | 27.65 | 4.4 | 5.43 | 11.34 | 12.47 | |||||
| 07:21 | Trim Patrick St | 2 | 21.5 | 74 | 38,460 | 0 | 0 | 1.64 | 0.79 | 38.88 | 5.12 | 7.14 | 10.57 | 11.63 | |||||
| 07:20 | Trim Patrick St | 2 | 21.5 | 74 | 38,460 | 0 | 1.95 | 1.5 | 13.99 | 25.01 | 4.02 | 5.43 | 9.15 | 10.07 | |||||
| 07:20 | Trim Market St | 2 | 21.8 | 72 | 48,210 | 0.01 | 0 | 1.42 | 7.88 | 42.55 | 0 | 2.85 | 4.88 | 7.53 | |||||
| 07:19 | Trim Patrick St | 2 | 21.4 | 74 | 38,460 | 0 | 2.77 | 1.34 | 12.72 | 33.61 | 4.75 | 6.29 | 9.88 | 10.87 | |||||
| 07:18 | Trim Patrick St | 2 | 21.4 | 75 | 38,460 | 0 | 1.61 | 1.4 | 12.08 | 22.53 | 4.09 | 3.71 | 6.27 | 6.9 | |||||
| 07:18 | Trim Market St | 2 | 21.7 | 72 | 47,673 | 0.03 | 0 | 1.47 | 5.66 | 40.52 | 0 | 4.28 | 6.32 | 10.59 | |||||
| 07:17 | Trim Patrick St | 2 | 21.4 | 74 | 38,460 | 0 | 3.83 | 1.45 | 14.35 | 28.68 | 4.15 | 6.29 | 11.29 | 12.42 | |||||
| 07:16 | Trim Patrick St | 2 | 21.3 | 75 | 38,460 | 0 | 1.19 | 1.45 | 16.82 | 32.14 | 3.68 | 6.29 | 11.26 | 12.38 | |||||
| 07:15 | Trim Patrick St | 2 | 21.3 | 75 | 38,460 | 0 | 3.62 | 1.58 | 17.92 | 28.48 | 3.87 | 4.57 | 9.13 | 10.04 | |||||
| 07:15 | Trim Market St | 2 | 21.6 | 73 | 47,066 | 0.11 | 0 | 1.48 | 4.33 | 40.73 | 0 | 2.85 | 5.34 | 8.75 | |||||
| 07:14 | Trim Patrick St | 2 | 21.3 | 74 | 38,460 | 0 | 0.5 | 1.64 | 12.01 | 25.97 | 4.27 | 5.43 | 9.16 | 10.08 | |||||
| 07:14 | Trim Market St | 2 | 21.6 | 73 | 46,804 | 0.45 | 0 | 1.49 | 13.11 | 41.44 | 0 | 2.85 | 5.34 | 9.98 | |||||
| 07:13 | Trim Patrick St | 2 | 21.2 | 75 | 38,460 | 0 | 0 | 1.57 | 4.75 | 35.1 | 4.86 | 7.14 | 10.52 | 11.57 | |||||
| 07:12 | Trim Patrick St | 2 | 21.2 | 75 | 38,460 | 0 | 1.09 | 1.44 | 0.62 | 41.51 | 4.95 | 7.14 | 9.79 | 10.77 | |||||